CW7693 Weather Reports


Display with metric or nautical units.
time (UTC)temp
F
wind
direction
speed
MPH
gust
MPH
rain 1hr
in
rain 24hr
in
rain mn
in
humidity
%
barometer
mb
20260505051503 42 162 1.0 4.0 0.00 0.00 0.00 84 1007.9
20260505041503 43 142 0.0 2.0 0.00 0.00 0.00 82 1008.1
20260505034502 43 142 0.0 2.0 0.00 0.00 0.00 81 1008.1
20260505033102 44 141 1.0 2.0 0.00 0.00 0.00 82 1008.2
20260505031501 44 142 1.0 3.0 0.00 0.00 0.00 81 1008.3
20260505024506 44 133 3.0 5.0 0.00 0.00 0.00 81 1008.4
20260505023102 45 144 0.0 2.0 0.00 0.00 0.00 80 1008.6
20260505021613 45 144 1.0 3.0 0.00 0.00 0.00 81 1008.7
20260505020002 45 143 1.0 4.0 0.00 0.00 0.00 81 1008.9
20260505014603 45 138 0.0 3.0 0.00 0.00 0.00 81 1008.9
20260505013002 46 146 0.0 1.0 0.00 0.00 0.00 80 1009.0
20260505011602 46 146 0.0 3.0 0.00 0.00 0.00 81 1009.2
20260505010003 46 144 0.0 2.0 0.00 0.00 0.00 83 1009.3
20260505004506 46 142 1.0 3.0 0.00 0.00 0.00 82 1009.3
20260505003102 47 132 0.0 1.0 0.00 0.00 0.00 81 1009.6
20260505001502 47 132 0.0 2.0 0.00 0.00 0.00 81 1009.6
20260505000107 48 132 0.0 1.0 0.00 0.00 0.00 81 1009.6
20260504234502 48 132 0.0 2.0 0.00 0.00 0.00 80 1009.8
20260504233107 49 132 0.0 2.0 0.00 0.00 0.00 79 1010.0
20260504231502 50 132 0.0 0.0 0.00 0.00 0.00 78 1010.0
20260504230108 50 132 0.0 0.0 0.00 0.00 0.00 77 1010.2
20260504224506 51 130 0.0 0.0 0.00 0.00 0.00 76 1010.2
20260504223104 52 130 0.0 0.0 0.00 0.00 0.00 76 1010.2
20260504221502 52 130 0.0 2.0 0.00 0.00 0.00 75 1010.2
20260504220136 53 130 0.0 3.0 0.00 0.00 0.00 74 1010.1
20260504214503 53 38 0.0 2.0 0.00 0.00 0.00 71 1010.2
20260504213128 54 38 1.0 2.0 0.00 0.00 0.00 70 1010.2
20260504211504 54 44 1.0 3.0 0.00 0.00 0.00 71 1010.2
20260504210104 54 27 1.0 3.0 0.00 0.00 0.00 71 1010.1
20260504204505 55 63 1.0 5.0 0.00 0.00 0.00 70 1010.1
20260504203103 56 27 2.0 5.0 0.00 0.00 0.00 68 1010.1
20260504201502 57 22 3.0 7.0 0.00 0.00 0.00 66 1009.9
20260504200113 58 35 3.0 6.0 0.00 0.00 0.00 68 1009.8
20260504194504 58 13 2.0 7.0 0.00 0.00 0.00 66 1009.8
20260504193104 60 26 2.0 6.0 0.00 0.00 0.00 62 1009.6
20260504191504 62 360 2.0 4.0 0.00 0.00 0.00 54 1009.8
20260504184503 63 360 2.0 5.0 0.00 0.00 0.00 44 1010.2
20260504183105 64 360 3.0 6.0 0.00 0.00 0.00 44 1010.3
20260504181502 64 60 1.0 5.0 0.00 0.00 0.00 63 1010.2
20260504174502 66 360 2.0 6.0 0.00 0.00 0.00 52 1009.7
20260504173105 67 348 3.0 12.0 0.00 0.00 0.00 49 1009.6
20260504171502 68 340 2.0 6.0 0.00 0.00 0.00 47 1009.4
20260504170106 68 360 2.0 5.0 0.00 0.00 0.00 48 1009.3
20260504160106 69 317 4.0 10.0 0.00 0.00 0.00 46 1009.1
20260504150105 71 301 3.0 9.0 0.00 0.00 0.00 42 1008.9
20260504110104 68 331 5.0 12.0 0.00 0.00 0.00 48 1010.2
20260504100105 66 360 4.0 10.0 0.00 0.00 0.00 53 1010.7
20260504081502 61 331 2.0 5.0 0.00 0.00 0.00 58 1011.8
20260504080104 61 314 2.0 6.0 0.00 0.00 0.00 58 1011.9
20260504070106 57 142 1.0 3.0 0.00 0.00 0.00 68 1012.2
20260504060103 50 360 2.0 4.0 0.00 0.00 0.00 79 1012.6